[Date Prev][Date Next][Thread Prev][Thread Next] - [Date Index][Thread Index][Author Index]
2 Line ISS Keps 1-21
- Subject: [sarex] 2 Line ISS Keps 1-21
- From: "Dave Larsen PhD" <doc@xxxxxxxxxxx>
- Date: Fri, 21 Jan 2005 05:39:13 -0800
ISS
1 25544U 98067A 05021.32928241 .00030454 00000-0 25035-3 0 6372
2 25544 51.6476 291.7661 0009175 13.7939 127.2115 15.70100005352599
----
Via the sarex mailing list at AMSAT.ORG courtesy of AMSAT-NA.
To unsubscribe, send "unsubscribe sarex" to Majordomo@amsat.org
AMSAT Home